Date of Measurement,Time,Ammonium-nitrogen,Total oxidised nitrogen,Nitrate-nitrogen,Nitrite-nitrogen,Suspended solids,Soluble reactive phosphorus,Dissolved organic carbon,Total phosphorus
Date,Time,Ammonium-nitrogen,Total oxidised nitrogen,Nitrate-nitrogen,Nitrite-nitrogen,Suspended solids,Soluble reactive phosphorus,Dissolved organic carbon,Total phosphorus
Units: Year month day,Units: Hour minute second,Units: milligrams per litre,Units: milligrams per litre,Units: milligrams per litre,Units: milligrams per litre,Units: milligrams per litre,Units: milligrams per litre,Units: milligrams per litre,Units: milligrams per litre
2012-01-26,11:15,0.067,3.89,3.82,0.0677,11.9,0.0468,16.8,0.209
2012-01-26,12:15,0.246,3.97,3.9,0.0654,11.6,0.0973,12.3,0.197
2012-01-26,13:15,0.212,3.99,3.93,0.0625,7.27,0.0971,12.2,0.196
2012-01-26,14:15,0.217,3.95,3.89,0.0634,8.07,0.0961,13.2,0.188
2012-01-26,15:15,0.201,3.96,3.9,0.0593,8.92,0.0978,10.9,0.189
2012-01-26,16:15,0.19,3.88,3.83,0.055,8.52,0.0938,14,0.182
2012-01-26,17:15,0.178,3.67,3.62,0.0523,13.5,0.0923,11.7,0.195
2012-01-26,18:15,0.257,3.6,3.55,0.0541,26.3,0.104,11.9,0.263
2012-01-26,19:15,0.444,3.38,3.33,0.0461,40.6,0.159,13.3,0.362
2012-01-26,20:15,0.764,3.03,2.98,0.05,46.5,0.229,15,0.503
2012-01-26,21:15,1.13,2.96,2.9,0.0646,40.3,0.309,7.51,0.659
2012-01-26,22:15,1.25,2.94,2.86,0.0804,37.7,0.35,19.9,0.703
2012-01-26,23:15,1.14,3.17,3.08,0.0854,33.3,0.361,16.1,0.694
2012-01-27,00:15,1.08,3.11,3.02,0.0913,36.7,0.349,15.9,0.718
2012-01-27,01:15,0.999,3.03,2.94,0.0904,52.2,0.316,14.5,0.688
2012-01-27,02:15,1.03,3.12,3.04,0.0787,68.5,0.327,16.4,0.765
2012-01-27,03:15,1.22,2.91,2.84,0.071,66,0.402,16.2,0.949
2012-01-27,04:15,1.34,3.04,2.96,0.0764,51.1,0.469,18.2,0.947
2012-01-27,05:15,1.32,3.17,3.09,0.083,42.9,0.457,18.6,0.914
2012-01-27,06:15,1.26,3.27,3.18,0.091,41.1,0.456,15.6,0.91
2012-01-27,07:15,1.19,3.27,3.18,0.093,38.1,0.431,16.3,0.851
2012-01-27,08:15,1.15,3.44,3.34,0.1,32.8,0.417,15.9,0.74
2012-01-27,09:15,1.06,3.47,3.36,0.109,28.8,0.387,13.7,0.681
2012-01-27,10:15,0.99,3.51,3.39,0.12,51.8,0.364,11.6,0.7
2012-06-22,05:16,0.056,2.32,2.22,0.102,130,0.195,12.2,0.587
2012-06-22,06:16,0.239,2.77,2.59,0.18,191,0.224,13.1,1.01
2012-06-22,07:16,0.166,2.51,2.4,0.11,115,0.292,13.5,0.703
2012-06-22,08:16,0.137,2.52,2.42,0.101,116,0.288,13.8,0.681
2012-06-22,09:16,0.119,2.62,2.52,0.104,83.6,0.303,16.6,0.659
2012-06-22,10:16,0.097,2.6,2.49,0.115,98.4,0.316,16.4,0.656
2012-06-22,11:16,0.073,2.48,2.41,0.0739,114,0.315,18.2,0.724
2012-06-22,12:16,0.112,2.16,2.07,0.0912,144,0.336,17.7,0.807
2012-06-22,13:16,0.148,1.99,1.91,0.0847,141,0.357,16.8,0.845
2012-06-22,14:16,0.088,1.86,1.81,0.0503,211,0.379,16.8,0.959
2012-06-22,15:16,0.079,1.9,1.84,0.0553,93.8,0.384,17.4,0.708
2012-06-22,16:16,0.111,2.02,1.96,0.0615,56.2,0.381,18.2,0.63
2012-06-22,17:16,0.074,2.21,2.16,0.0452,40.7,0.368,18.8,0.61
2012-06-22,18:16,0.065,2.4,2.34,0.0646,43,0.344,19.2,0.568
2012-06-22,19:16,0.101,2.47,2.4,0.0749,62.4,0.326,19.9,0.588
2012-06-22,20:16,0.087,2.66,2.59,0.0731,37,0.314,18.4,0.526
2012-06-22,21:16,0.102,2.66,2.58,0.0807,33.4,0.298,20.7,0.505
2012-06-22,22:16,0.096,2.67,2.6,0.0746,27.6,0.28,21.8,0.475
2012-06-22,23:16,0.18,2.56,2.44,0.116,83,0.264,19.4,0.614
2012-06-23,00:16,0.126,2,1.91,0.0867,114,0.284,17.7,0.676
2012-06-23,01:16,0.061,1.53,1.49,0.0418,224,0.285,14.8,0.821
2012-06-23,02:16,0.046,1.21,1.17,0.0445,232,0.287,14.7,0.842
2012-06-23,03:16,0.057,1.17,1.13,0.0424,15.9,0.32,15.2,0.767
2012-06-23,04:16,0.06,1.18,1.14,0.0433,155,0.341,13.7,0.729
2012-09-24,15:00,< .03,3.04,3.04,< .004,212,0.197,12.3,0.865
2012-09-24,16:00,0.037,2.18,2.17,0.0111,254,0.226,11.4,1.02
2012-09-24,17:00,< .03,2,2,0.0043,353,0.257,11,1.24
2012-09-24,18:00,< .03,2.43,2.43,0.0045,272,0.29,10.8,1.05
2012-09-24,19:00,< .03,2.5,2.49,0.0057,353,0.242,9.76,1.22
2012-09-24,20:00,< .03,2.61,2.6,0.0064,345,0.31,9.83,1.08
2012-09-24,21:00,< .03,2.63,2.62,0.0088,215,0.271,9.67,0.829
2012-09-24,22:00,< .03,3.06,3.05,0.0092,141,0.305,9.98,0.693
2012-09-24,23:00,< .03,3.45,3.44,0.0085,103,0.327,10.8,0.661
2012-09-25,00:00,< .03,4.12,4.11,0.0088,97.4,0.325,11.3,0.669
2012-09-25,01:00,< .03,4.62,4.61,0.0117,95.1,0.381,12.1,0.693
2012-09-25,02:00,< .03,4.44,4.42,0.0151,82.2,0.364,13.2,0.683
2012-09-25,03:00,< .03,4.17,4.16,0.012,72.1,0.396,12.1,0.68
2012-09-25,04:00,< .03,4.28,4.27,0.0135,61.5,0.395,12.7,0.649
2012-09-25,05:00,0.031,3.99,3.98,0.0145,62.1,0.395,12.2,0.648
2012-09-25,06:00,0.031,3.88,3.87,0.0119,58.1,0.385,12.4,0.629
2012-09-25,07:00,< .03,3.96,3.95,0.0095,52.2,0.386,13.6,0.627
2012-09-25,08:00,0.037,3.98,3.97,0.014,48,0.39,13.2,0.644
2012-09-25,09:00,0.046,3.84,3.82,0.0181,26.2,0.408,14.4,0.61
2012-09-25,10:00,0.034,3.88,3.86,0.0156,22.7,0.401,14.8,0.599
2012-09-25,11:00,0.051,4.09,4.07,0.02,25.1,0.412,14.5,0.624
2012-09-25,12:00,0.041,4.17,4.15,0.0184,21.5,0.415,14.4,0.628
2012-09-25,13:00,0.059,4.22,4.19,0.0341,20.2,0.41,15.1,0.628
2012-09-25,14:00,0.06,4.33,4.3,0.0327,21.8,0.404,15.3,0.618
2013-12-18,15:45,0.036,9.43,9.39,0.0359,5.12,0.0673,9.17,0.0958
2013-12-18,16:45,0.047,9.69,9.65,0.0432,6,0.069,9.31,0.0989
2013-12-18,17:45,0.042,9.38,9.34,0.0358,6.92,0.068,9.19,0.0994
2013-12-18,18:45,0.047,8.84,8.81,0.0296,16.1,0.0692,9,0.12
2013-12-18,19:45,0.146,7.44,7.39,0.0455,82.2,0.113,8.45,0.342
2013-12-18,20:45,0.106,5.43,5.4,0.0315,232,0.154,8.38,0.728
2013-12-18,21:45,0.135,5.61,5.57,0.0382,186,0.205,10.4,0.745
2013-12-18,22:45,0.089,6.05,6.03,0.023,137,0.225,11.5,0.638
2013-12-18,23:45,0.071,7.21,7.19,0.0203,88.2,0.237,12.3,0.535
2013-12-19,00:45,0.069,7.63,7.61,0.0181,57.7,0.225,12.3,0.451
2013-12-19,01:45,0.053,8.19,8.17,0.0183,45.6,0.215,12.9,0.403
2013-12-19,02:45,0.053,8.21,8.19,0.0191,34.7,0.198,12.1,0.35
2013-12-19,03:45,0.054,8.6,8.58,0.0187,30.9,0.187,11.8,0.327
2013-12-19,04:45,0.052,8.65,8.63,0.0183,25.1,0.176,11.6,0.292
2013-12-19,05:45,0.051,9,8.98,0.0188,22.9,0.165,11.9,0.274
2013-12-19,06:45,0.055,9.1,9.08,0.02,20.6,0.161,11.2,0.255
2013-12-19,07:45,0.053,8.9,8.88,0.0195,19.7,0.154,11.2,0.248
2014-01-15,08:00,0.108,3.5,3.48,0.0208,52.6,0.11,8.77,0.327
2014-01-15,09:00,0.135,3.3,3.28,0.0202,41.4,0.139,8.98,0.311
2014-01-15,10:00,0.125,3.48,3.46,0.0194,30.5,0.15,9.77,0.286
2014-01-15,11:00,0.104,3.59,3.57,0.0187,21.4,0.147,9.76,0.268
2014-01-15,12:00,0.138,3.86,3.84,0.0187,19.2,0.149,10.2,0.265
2014-01-15,14:00,0.08,4.18,4.16,0.019,15.9,0.135,10.2,0.238
2014-01-15,15:00,0.079,4.15,4.13,0.0191,12.6,0.129,9.65,0.224
2014-01-15,16:00,0.068,4.23,4.21,0.0185,11.3,0.127,9.69,0.21
2014-01-15,17:00,0.067,4.27,4.25,0.0184,9.75,0.12,9.48,0.201
2014-01-15,18:00,0.068,4.46,4.44,0.0182,10.4,0.114,9.91,0.186
2014-01-15,19:00,0.062,4.48,4.46,0.019,9.75,0.108,9.14,0.188
2014-01-28,02:45,0.13,3.63,3.61,0.0231,42.5,0.123,9.75,0.274
2014-01-28,03:45,0.106,3.12,3.1,0.021,78.1,0.124,8.75,0.378
2014-01-28,04:45,0.132,2.82,2.8,0.0177,95.3,0.137,8.78,0.43
2014-01-28,05:45,0.144,2.64,2.62,0.0175,84.6,0.162,9.66,0.419
2014-01-28,06:45,0.107,3.54,3.52,0.0245,59.9,0.203,10.3,0.431
2014-01-28,07:45,0.251,2.97,2.95,0.0169,43.1,0.202,10.3,0.402
2014-01-28,08:45,0.25,3.08,3.06,0.0179,31.8,0.226,10.2,0.383
2014-01-28,09:45,0.268,3.33,3.31,0.0194,22.7,0.218,10.5,0.336
2014-01-28,10:45,0.233,3.53,3.51,0.0239,23,0.203,11.8,0.304
2014-01-28,11:45,0.222,3.57,3.55,0.0219,18.9,0.192,9.83,0.29
2014-01-28,12:45,0.188,3.7,3.68,0.0218,16.6,0.184,10.1,0.276
2014-01-28,13:45,0.163,3.8,3.78,0.0222,16.6,0.173,10.5,0.258
2014-02-05,14:00,0.063,3.67,3.65,0.0239,7.25,0.0857,9.26,0.131
2014-02-05,15:00,0.057,3.43,3.41,0.0228,18.4,0.0838,8.52,0.159
2014-02-05,16:00,0.063,3.27,3.25,0.0204,142,0.155,7.8,0.43
2014-02-05,17:00,0.05,2.59,2.57,0.0205,87.6,0.118,8.05,0.341
2014-02-05,18:00,0.072,2.76,2.74,0.0245,95,0.15,8.86,0.389
2014-02-05,19:00,0.091,2.49,2.47,0.0243,72.9,0.117,8.94,0.389
2014-02-05,20:00,0.087,2.08,2.06,0.0192,198,0.127,8.77,0.614
2014-02-05,21:00,0.076,2.05,2.03,0.0171,205,0.137,8.84,0.666
2014-02-05,22:00,0.098,1.93,1.91,0.0167,138,0.165,8.55,0.59
2014-02-05,23:00,0.14,2.14,2.12,0.0172,96.5,0.183,9.08,0.508
2014-02-06,00:00,0.134,2.36,2.34,0.0201,70.6,0.193,9.65,0.492
2014-02-06,01:00,0.125,2.63,2.61,0.0185,56.2,0.189,9.7,0.421
2014-02-06,02:00,0.135,2.88,2.86,0.0173,42.4,0.179,10,0.384
2014-02-06,03:00,0.092,2.9,2.88,0.0178,34.8,0.171,9.7,0.355
2014-02-08,04:15,0.109,3.08,3.05,0.0287,34.3,0.111,8.47,0.236
2014-02-08,06:15,0.117,2.17,2.15,0.0182,88.3,0.126,8.65,0.437
2014-02-08,08:15,0.149,2.49,2.47,0.018,28.3,0.152,9.57,0.329
2014-02-08,10:15,0.131,2.21,2.19,0.0166,45.2,0.148,9.52,0.357
2014-02-08,12:15,0.112,2.8,2.78,0.0186,22.3,0.145,9.63,0.284
2014-02-08,14:15,0.088,2.94,2.92,0.0174,18.3,0.134,9.65,0.251
2014-02-08,16:15,0.082,2.64,2.62,0.0166,36.2,0.115,9.3,0.277
2014-02-08,18:15,0.083,2.4,2.39,0.015,34.7,0.122,8.7,0.289
2014-02-08,20:15,0.079,1.95,1.94,0.0147,140,0.131,8.56,0.547
2014-02-08,22:15,0.071,1.74,1.73,0.0135,105,0.158,9.14,0.518
2014-02-09,00:15,0.108,2,1.99,0.0141,77.9,0.213,9.57,0.455
2014-02-09,02:15,0.108,2.53,2.52,0.0138,45,0.179,9.63,0.402
2014-02-12,13:15,0.088,2.36,2.35,0.0141,144,0.0828,7.72,0.449
2014-02-12,15:15,0.12,1.49,1.48,0.0129,196,0.116,8.21,0.665
2014-02-12,17:15,0.112,1.57,1.56,0.0126,116,0.14,8.43,0.497
2014-02-12,19:15,0.186,1.88,1.87,0.0132,84.4,0.154,9.18,0.437
2014-02-12,21:15,0.172,1.77,1.76,0.0129,139,0.144,8.95,0.491
2014-02-12,23:15,0.077,1.36,1.35,0.0091,248,0.13,7.69,0.735
2014-02-13,01:15,0.122,1.65,1.64,0.0107,122,0.153,8.56,0.498
2014-02-13,03:15,0.471,2.02,2.01,0.0111,80.3,0.181,10.1,0.458
2014-02-13,05:15,0.473,2.5,2.46,0.038,64.8,0.19,9.79,0.435
2014-02-13,07:15,0.575,2.61,2.6,0.0134,51.6,0.188,11.1,0.392
2014-02-13,09:15,0.472,2.71,2.7,0.0131,34.7,0.172,10.1,0.34
2014-02-13,11:15,0.326,2.69,2.68,0.0142,30.3,0.153,9.94,0.298
